Погода в Сен-Назере

Франция     47°16′57″N   2°12′40″W
темп.,
°C
ветер,
м/с
пор.,
м/с
влажн.,
%
обл.,
%
осадки,
мм/ч
давл.,
гПа
погр.,
м
1 марта, пн
пн101:00+6всв610860 0.0 1027266
04:00+6всв69850 0.0 1026213
07:00+6в58880 0.0 1026179
10:00+8в57770 0.0 1026264
13:00+12вюв57710 0.0 1026357
16:00+14вюв57690 0.0 1024511
19:00+11в45840 0.0 102452
22:00+9в47860 0.0 1025101
2 марта, вт
вт201:00+9в578510 0.0 1025138
04:00+8вюв588557 0.0 1024186
07:00+8юв598679 0.0 1025249
10:00+9юв577979 0.0 1025269
13:00+12юв477754 0.0 1026289
16:00+13ю69730 0.0 1025389
19:00+11ююв588013 0.0 1026158
22:00+11ю458590 0.0 102785
3 марта, ср
ср301:00+10ю458764 0.0 102772
04:00+10ю349036 0.0 102745
07:00+11ююз238568 0.3 102756
10:00+11ю458374 0.0 1027156
13:00+12юз567655 0.0 1027352
16:00+12зюз467939 0.0 1026353
19:00+10з348931 0.0 102545
22:00+9з23906 0.0 102525
4 марта, чт
чт401:00+9з23913 0.0 102435
04:00+8зсз23930 0.0 102354
07:00+7с23978 0.0 102290
10:00+9с238587 0.0 1022414
13:00+11св238052 0.0 1022472
16:00+11св23797 0.0 1020437
19:00+10св468534 0.0 1020160
22:00+9всв348399 0.0 102194
5 марта, пт
пт501:00+8св599480 0.0 1021248
04:00+6св6109233 0.0 1021381
07:00+5св7128820 0.0 1021478
10:00+6св811741 0.0 1023671
13:00+7св8106810 0.0 10231086
16:00+7св8106798 0.0 10241093
19:00+5св7116953 0.0 1025864
22:00+4св8136821 0.0 1028926